This is the latest recevied weather packets stored in our database for station/object WB9FIU. If no packets are shown the sender has not sent any weather packets the latest 10 day(s).
| Time | Temp. | Humidity | Pressure | Rain* | Wind** | Luminosity | Snow |
|---|---|---|---|---|---|---|---|
| 1778078462 | 11.67° C | 70% | 1012.7 hPa | 0 mm | - | - | - |
| 1778078401 | 11.67° C | 71% | 1012.8 hPa | 0 mm | - | - | - |
| 1778078342 | 11.67° C | 69% | 1012.7 hPa | 0 mm | - | - | - |
| 1778078281 | 11.67° C | 71% | 1012.8 hPa | 0 mm | - | - | - |
| 1778078221 | 11.67° C | 71% | 1012.9 hPa | 0 mm | - | - | - |
| 1778078161 | 11.11° C | 70% | 1012.9 hPa | 0 mm | - | - | - |
| 1778078101 | 11.11° C | 68% | 1012.8 hPa | 0 mm | - | - | - |
| 1778078041 | 11.11° C | 69% | 1012.7 hPa | 0 mm | - | - | - |
| 1778077981 | 11.11° C | 68% | 1012.7 hPa | 0 mm | - | - | - |
| 1778077922 | 11.11° C | 68% | 1012.7 hPa | 0 mm | - | - | - |
| 1778077861 | 11.11° C | 68% | 1012.7 hPa | 0 mm | - | - | - |
| 1778077804 | 11.11° C | 67% | 1012.6 hPa | 0 mm | - | - | - |
| 1778077742 | 11.11° C | 67% | 1012.6 hPa | 0 mm | - | - | - |
| 1778077682 | 11.11° C | 65% | 1012.6 hPa | 0 mm | - | - | - |
| 1778077622 | 11.11° C | 65% | 1012.6 hPa | 0 mm | - | - | - |
| 1778077562 | 11.11° C | 69% | 1012.5 hPa | 0 mm | - | - | - |
| 1778077502 | 11.11° C | 70% | 1012.7 hPa | 0 mm | - | - | - |
| 1778077445 | 11.11° C | 71% | 1012.7 hPa | 0 mm | - | - | - |
| 1778077384 | 11.11° C | 71% | 1012.7 hPa | 0 mm | - | - | - |
| 1778077322 | 11.11° C | 69% | 1012.8 hPa | 0 mm | - | - | - |
| 1778077203 | 11.11° C | 69% | 1012.8 hPa | 0 mm | - | - | - |
| 1778077140 | 11.11° C | 69% | 1012.8 hPa | 0 mm | - | - | - |
| 1778077087 | 11.11° C | 67% | 1012.8 hPa | 0 mm | - | - | - |
| 1778076962 | 11.11° C | 66% | 1012.8 hPa | 0 mm | - | - | - |
| 1778076902 | 11.11° C | 69% | 1012.8 hPa | 0 mm | - | - | - |
* Rain latest hour (hover to see other rain measurements)
** Current wind speed in m/s (hover to see current wind gust speed)